Flag for Portugal Weather past 2 weeks in Porto, Portugal

Now
59 °F

Clear.


Feels Like: 59 °F
Forecast: 60 / 81 °F
Wind: 1 mph from North

Location: Porto / Pedras Rubras

Current Time: Aug 30, 2014 at 5:38:03 AM

Latest Report: Aug 30, 2014 at 5:00 AM


Visibility: 10 mi

Pressure: 30.01 "Hg

Humidity: 100%

Dew point: 59 °F

Location of PortoLocation

Historic Weather in Porto — Graph

°F

Porto temperature yesterday

Maximum temperature yesterday: 75 °F (at 1:49 PM)
Minimum temperature yesterday: 54 °F (at 5:00 AM)
Average temperature yesterday: 64 °F

Past Weeks' High & Low Weather Summary

 TemperatureHumidityPressure
High86 °F (Aug 17, 12:00 PM)100% (Aug 15, 6:30 AM)30.15 "Hg (Aug 15, 6:30 AM)
Low50 °F (Aug 24, 6:00 AM)25% (Aug 17, 12:00 PM)29.83 "Hg (Aug 18, 3:30 AM)
Average65 °F83%30.04 "Hg
* Reported Aug 15 4:30 AM — Aug 30 4:00 AM, Porto, Weather by CustomWeather, © 2014

Note: Actual official high and low records may vary slightly from our data, if they occured in-between our weather recording intervals... More about our weather records

Advertising

Porto weather history for previous 24 hours

 ConditionsComfort  
Time TempWeatherWind HumidityBarometerVisibility
4:00 AM
Aug 30
59 °FClear.2 mph94%30.01 "Hg10 mi
3:30 AM59 °FClear.2 mph94%30.01 "Hg10 mi
3:00 AM57 °FClear.1 mph100%30.01 "Hg10 mi
2:30 AM57 °FClear.1 mph100%30.01 "Hg10 mi
2:00 AM57 °FClear.3 mph94%30.04 "Hg10 mi
1:30 AM57 °FClear.3 mph100%30.04 "Hg10 mi
1:00 AM57 °FClear.1 mph100%30.04 "Hg10 mi
12:30 AM59 °FClear.2 mph94%30.04 "Hg10 mi
12:00 AM59 °FClear.No wind94%30.04 "Hg10 mi
11:30 PM
Aug 29
59 °FClear.2 mph94%30.04 "Hg10 mi
11:00 PM61 °FPassing clouds.1 mph94%30.04 "HgN/A
10:30 PM61 °FClear.2 mph94%30.04 "Hg10 mi
10:00 PM61 °FPassing clouds.3 mph94%30.04 "HgN/A
8:00 PM64 °FSunny.10 mph78%30.04 "Hg10 mi
7:30 PM66 °FSunny.9 mph73%30.04 "Hg10 mi
7:00 PM70 °FSunny.10 mph64%30.04 "Hg10 mi
6:30 PM70 °FSunny.9 mph64%30.04 "Hg10 mi
6:00 PM72 °FPassing clouds.12 mph61%30.04 "HgN/A
5:30 PM72 °FSunny.13 mph65%30.04 "Hg10 mi
5:00 PM73 °FSunny.12 mph61%30.04 "Hg10 mi
4:30 PM73 °FPassing clouds.10 mph61%30.07 "HgN/A
4:00 PM73 °FPassing clouds.13 mph61%30.07 "HgN/A
3:30 PM73 °FPassing clouds.10 mph65%30.07 "HgN/A
3:00 PM73 °FSunny.14 mph65%30.09 "Hg10 mi
2:30 PM73 °FSunny.12 mph65%30.09 "Hg10 mi
2:00 PM75 °FPassing clouds.9 mph61%30.09 "HgN/A
1:49 PM75 °FPassing clouds.9 mph61%30.09 "HgN/A
1:30 PM72 °FPassing clouds.10 mph69%30.09 "HgN/A
1:00 PM73 °FPassing clouds.9 mph65%30.09 "HgN/A
12:30 PM72 °FPassing clouds.7 mph69%30.12 "HgN/A
12:00 PM72 °FPassing clouds.5 mph69%30.12 "HgN/A
11:30 AM70 °FPassing clouds.5 mph73%30.12 "HgN/A
11:00 AM68 °FPassing clouds.6 mph73%30.12 "HgN/A
10:30 AM68 °FPassing clouds.8 mph73%30.12 "HgN/A
10:00 AM66 °FPassing clouds.6 mph78%30.12 "HgN/A
9:30 AM64 °FPassing clouds.5 mph83%30.12 "HgN/A
9:00 AM61 °FPassing clouds.5 mph94%30.12 "HgN/A
8:30 AM59 °FPassing clouds.3 mph100%30.12 "HgN/A
8:00 AM57 °FSunny.2 mph94%30.12 "Hg10 mi
7:30 AM54 °FPassing clouds.3 mph100%30.12 "HgN/A
7:00 AM54 °FClear.3 mph100%30.12 "Hg6 mi
6:30 AM54 °FPassing clouds.2 mph94%30.12 "HgN/A
6:00 AM55 °FPassing clouds.No wind100%30.12 "HgN/A
5:30 AM54 °FLight fog.2 mph100%30.09 "Hg6 mi
5:00 AM54 °FClear.2 mph100%30.09 "Hg6 mi
Weather by CustomWeather, © 2014

See weather overviewHow to use our weather pages